• Em Portugal
  • Lista de países
  • Para 7 dias
  • Temperatura da água
  • Mapas de satélite
  • Mapa do tempo
  • Widgets de tempo
  • user-avatar
    Iniciar Sessão

    Previsão horária em Altaj

    Hoje, 18 Junho, Segunda-feira

    Tempo Temperatura Precipitação Vento Pressão Humidade
    00:00 +15°C° 0 mm 2 m/s 569 mmHg 34%
    01:00 +15°C° 0 mm 2 m/s 569 mmHg 36%
    02:00 +13°C° 0 mm 3 m/s 569 mmHg 39%
    03:00 +13°C° 0 mm 3 m/s 569 mmHg 41%
    04:00 +13°C° 0 mm 4 m/s 569 mmHg 41%
    05:00 +13°C° 0 mm 4 m/s 569 mmHg 41%
    06:00 +14°C° 0 mm 5 m/s 570 mmHg 40%
    07:00 +15°C° 0 mm 5 m/s 571 mmHg 37%
    08:00 +16°C° 0 mm 5 m/s 571 mmHg 34%
    09:00 +17°C° 0 mm 5 m/s 572 mmHg 31%
    10:00 +19°C° 0 mm 4 m/s 572 mmHg 29%
    11:00 +20°C° 0 mm 4 m/s 572 mmHg 28%
    12:00 +22°C° 0 mm 4 m/s 572 mmHg 25%
    13:00 +22°C° 0,1 mm 4 m/s 572 mmHg 25%
    14:00 +22°C° 0,1 mm 4 m/s 572 mmHg 25%
    15:00 +22°C° 0,1 mm 4 m/s 572 mmHg 25%
    16:00 +22°C° 0,1 mm 4 m/s 571 mmHg 27%
    17:00 +21°C° 0,1 mm 5 m/s 571 mmHg 28%
    18:00 +21°C° 0 mm 4 m/s 571 mmHg 28%
    19:00 +20°C° 0 mm 4 m/s 570 mmHg 31%
    20:00 +19°C° 0 mm 4 m/s 570 mmHg 34%
    21:00 +18°C° 0 mm 4 m/s 570 mmHg 37%
    22:00 +18°C° 0 mm 3 m/s 570 mmHg 38%
    23:00 +17°C° 0 mm 3 m/s 570 mmHg 39%

    Amanhã, 19 Junho, Terça-feira

    Tempo Temperatura Precipitação Vento Pressão Humidade
    00:00 +17°C° 0 mm 3 m/s 570 mmHg 40%
    01:00 +17°C° 0 mm 3 m/s 569 mmHg 40%
    02:00 +15°C° 0 mm 4 m/s 569 mmHg 40%
    03:00 +15°C° 0 mm 4 m/s 569 mmHg 40%
    04:00 +15°C° 0 mm 5 m/s 569 mmHg 37%
    05:00 +15°C° 0 mm 5 m/s 569 mmHg 34%
    06:00 +16°C° 0 mm 6 m/s 569 mmHg 32%
    07:00 +16°C° 0 mm 6 m/s 570 mmHg 29%
    08:00 +16°C° 0 mm 7 m/s 570 mmHg 27%
    09:00 +17°C° 0 mm 8 m/s 570 mmHg 25%
    10:00 +17°C° 0 mm 7 m/s 570 mmHg 26%
    11:00 +17°C° 0 mm 7 m/s 571 mmHg 26%
    12:00 +17°C° 0 mm 7 m/s 571 mmHg 27%
    13:00 +17°C° 0,1 mm 7 m/s 570 mmHg 28%
    14:00 +17°C° 0,1 mm 6 m/s 570 mmHg 30%
    15:00 +16°C° 0,1 mm 6 m/s 570 mmHg 32%
    16:00 +16°C° 0,1 mm 6 m/s 569 mmHg 35%
    17:00 +15°C° 0,1 mm 6 m/s 569 mmHg 38%
    18:00 +14°C° 0,1 mm 5 m/s 568 mmHg 42%
    19:00 +14°C° 0,1 mm 5 m/s 568 mmHg 46%
    20:00 +13°C° 0,1 mm 4 m/s 568 mmHg 51%
    21:00 +13°C° 0,1 mm 4 m/s 568 mmHg 55%
    22:00 +13°C° 0 mm 3 m/s 568 mmHg 56%
    23:00 +14°C° 0 mm 2 m/s 568 mmHg 56%

    Depois de amanhã, 20 Junho, Quarta-feira

    Tempo Temperatura Precipitação Vento Pressão Humidade
    00:00 +13°C° 0 mm 2 m/s 568 mmHg 57%
    01:00 +13°C° 0 mm 1 m/s 567 mmHg 57%
    02:00 +13°C° 0 mm 1 m/s 567 mmHg 58%
    03:00 +12°C° 0 mm 1 m/s 567 mmHg 58%
    04:00 +13°C° 0 mm 1 m/s 567 mmHg 56%
    05:00 +13°C° 0 mm 1 m/s 568 mmHg 53%
    06:00 +14°C° 0 mm 1 m/s 568 mmHg 51%
    07:00 +14°C° 0 mm 2 m/s 568 mmHg 51%
    08:00 +15°C° 0 mm 2 m/s 569 mmHg 50%
    09:00 +14°C° 0 mm 3 m/s 569 mmHg 50%
    10:00 +14°C° 0,1 mm 3 m/s 569 mmHg 50%
    11:00 +14°C° 0,1 mm 3 m/s 569 mmHg 50%
    12:00 +14°C° 0,1 mm 3 m/s 569 mmHg 50%
    13:00 +16°C° 0,1 mm 3 m/s 569 mmHg 49%
    14:00 +16°C° 0,1 mm 3 m/s 569 mmHg 47%
    15:00 +16°C° 0,1 mm 3 m/s 568 mmHg 46%
    16:00 +16°C° 0 mm 3 m/s 568 mmHg 45%
    17:00 +16°C° 0 mm 2 m/s 568 mmHg 45%
    18:00 +16°C° 0 mm 2 m/s 568 mmHg 44%
    19:00 +16°C° 0 mm 2 m/s 568 mmHg 46%
    20:00 +15°C° 0 mm 2 m/s 568 mmHg 48%
    21:00 +15°C° 0 mm 1 m/s 568 mmHg 50%
    22:00 +14°C° 0 mm 1 m/s 568 mmHg 52%
    23:00 +14°C° 0 mm 1 m/s 567 mmHg 53%

    21 Junho, Quinta-feira

    Tempo Temperatura Precipitação Vento Pressão Humidade
    00:00 +13°C° 0 mm 1 m/s 567 mmHg 54%
    01:00 +13°C° 0 mm 1 m/s 567 mmHg 55%
    02:00 +13°C° 0 mm 1 m/s 567 mmHg 56%
    03:00 +12°C° 0 mm 1 m/s 566 mmHg 57%
    04:00 +13°C° 0 mm 1 m/s 567 mmHg 54%
    05:00 +14°C° 0 mm 1 m/s 567 mmHg 51%
    06:00 +14°C° 0 mm 1 m/s 568 mmHg 48%
    07:00 +16°C° 0 mm 1 m/s 568 mmHg 43%
    08:00 +18°C° 0 mm 1 m/s 569 mmHg 39%
    09:00 +19°C° 0 mm 1 m/s 569 mmHg 35%
    10:00 +19°C° 0 mm 2 m/s 570 mmHg 32%
    11:00 +20°C° 0 mm 2 m/s 570 mmHg 29%
    12:00 +21°C° 0 mm 3 m/s 570 mmHg 27%
    13:00 +21°C° 0 mm 3 m/s 570 mmHg 26%
    14:00 +22°C° 0 mm 3 m/s 570 mmHg 25%
    15:00 +22°C° 0 mm 3 m/s 570 mmHg 24%
    16:00 +22°C° 0 mm 4 m/s 569 mmHg 25%
    17:00 +21°C° 0 mm 4 m/s 569 mmHg 26%
    18:00 +21°C° 0 mm 4 m/s 569 mmHg 27%
    19:00 +20°C° 0 mm 4 m/s 569 mmHg 31%
    20:00 +18°C° 0 mm 4 m/s 569 mmHg 36%
    21:00 +17°C° 0 mm 4 m/s 569 mmHg 41%
    22:00 +16°C° 0 mm 3 m/s 568 mmHg 45%
    23:00 +16°C° 0 mm 3 m/s 568 mmHg 49%

    22 Junho, Sexta-feira

    Tempo Temperatura Precipitação Vento Pressão Humidade
    00:00 +15°C° 0 mm 2 m/s 568 mmHg 53%
    01:00 +14°C° 0 mm 2 m/s 567 mmHg 55%
    02:00 +14°C° 0 mm 2 m/s 567 mmHg 57%
    03:00 +13°C° 0 mm 1 m/s 567 mmHg 59%
    04:00 +14°C° 0 mm 1 m/s 567 mmHg 56%
    05:00 +14°C° 0 mm 2 m/s 568 mmHg 52%
    06:00 +14°C° 0 mm 2 m/s 568 mmHg 49%
    07:00 +15°C° 0 mm 2 m/s 568 mmHg 43%
    08:00 +16°C° 0 mm 3 m/s 569 mmHg 38%
    09:00 +17°C° 0 mm 3 m/s 569 mmHg 32%
    10:00 +18°C° 0 mm 3 m/s 569 mmHg 30%
    11:00 +19°C° 0 mm 3 m/s 570 mmHg 28%
    12:00 +20°C° 0 mm 3 m/s 570 mmHg 26%
    13:00 +20°C° 0 mm 4 m/s 569 mmHg 26%
    14:00 +20°C° 0 mm 4 m/s 569 mmHg 26%
    15:00 +21°C° 0 mm 4 m/s 569 mmHg 26%
    16:00 +20°C° 0 mm 4 m/s 569 mmHg 28%
    17:00 +19°C° 0 mm 4 m/s 569 mmHg 30%
    18:00 +19°C° 0 mm 4 m/s 568 mmHg 32%
    19:00 +18°C° 0 mm 3 m/s 568 mmHg 35%
    20:00 +17°C° 0 mm 3 m/s 568 mmHg 37%
    21:00 +17°C° 0 mm 3 m/s 568 mmHg 40%
    22:00 +16°C° 0,2 mm 3 m/s 568 mmHg 43%
    23:00 +14°C° 0,2 mm 3 m/s 567 mmHg 46%

    23 Junho, Sábado

    Tempo Temperatura Precipitação Vento Pressão Humidade
    00:00 +13°C° 0,2 mm 3 m/s 567 mmHg 50%
    01:00 +14°C° 0,1 mm 2 m/s 567 mmHg 53%
    02:00 +13°C° 0,1 mm 2 m/s 566 mmHg 56%
    03:00 +12°C° 0,1 mm 2 m/s 566 mmHg 59%
    04:00 +12°C° 0,1 mm 2 m/s 566 mmHg 59%
    05:00 +12°C° 0,1 mm 2 m/s 566 mmHg 59%
    06:00 +12°C° 0,1 mm 2 m/s 566 mmHg 60%
    07:00 +13°C° 0 mm 2 m/s 567 mmHg 56%
    08:00 +12°C° 0 mm 3 m/s 567 mmHg 53%
    09:00 +13°C° 0 mm 3 m/s 567 mmHg 49%
    10:00 +14°C° 0 mm 3 m/s 568 mmHg 46%
    11:00 +15°C° 0 mm 4 m/s 568 mmHg 42%
    12:00 +17°C° 0 mm 4 m/s 568 mmHg 39%
    13:00 +18°C° 0,2 mm 4 m/s 568 mmHg 36%
    14:00 +18°C° 0,2 mm 4 m/s 568 mmHg 34%
    15:00 +19°C° 0,2 mm 4 m/s 568 mmHg 32%
    16:00 +19°C° 0 mm 3 m/s 568 mmHg 31%
    17:00 +19°C° 0 mm 3 m/s 568 mmHg 31%
    18:00 +18°C° 0 mm 2 m/s 568 mmHg 30%
    19:00 +18°C° 0 mm 2 m/s 568 mmHg 32%
    20:00 +17°C° 0 mm 2 m/s 568 mmHg 35%
    21:00 +16°C° 0 mm 2 m/s 568 mmHg 37%
    22:00 +15°C° 0 mm 2 m/s 567 mmHg 39%
    23:00 +15°C° 0 mm 2 m/s 567 mmHg 41%
    Mostrar mais